Temp
-7 -7 -6 -6 -7 -7 -7 -7 -7 -7 -7 -7 -7 -7 -7 -7 -7 -7 -7 -7 -7 -7 -7 -7 -7 -7 -7 -7 -7 -7 -7 -7 -7 -7 -7 -7 -7 -7 -7 -7 -7 -7 -7
-7 -7 -7 -7 -7 -7 -7 -7 -7 -7 -7 -7 -8 -8 -7 -7 -7 -7 -7 -7 -7 -7 -7 -7 -7 -7 -7 -7 -7 -7 -7 -7 -7 -7 -7 -7 -7 -7 -7 -7 -7 -7 -7
-7 -7 -7 -7 -7 -7 -7 -7 -7 -7 -8 -8 -8 -7 -7 -7 -7 -7 -7 -7 -7 -7 -7 -7 -7 -7 -7 -7 -7 -7 -7 -7 -7 -7 -7 -7 -7 -8 -8 -8 -7 -7 -8
-7 -7 -7 -7 -7 -7 -7 -7 -7 -8 -8 -8 -8 -8 -8 -7 -7 -7 -7 -7 -7 -7 -7 -7 -7 -7 -7 -7 -7 -7 -7 -7 -7 -7 -7 -8 -7 -8 -8 -8 -8 -8 -8
-8 -7 -7 -7 -7 -7 -7 -7 -8 -8 -8 -8 -8 -8 -8 -8 -7 -7 -7 -7 -7 -7 -7 -7 -8 -8 -7 -7 -7 -8 -8 -7 -7 -7 -7 -7 -8 -7 -8 -8 -8 -8 -8
-8 -8 -7 -7 -7 -8 -8 -8 -8 -8 -8 -8 -8 -8 -8 -8 -8 -7 -7 -7 -7 -7 -8 -8 -8 -8 -8 -8 -8 -8 -7 -8 -8 -7 -8 -8 -8 -8 -8 -9 -9 -9 -9
-8 -8 -8 -8 -8 -8 -8 -8 -8 -8 -8 -8 -8 -8 -8 -8 -8 -8 -7 -8 -8 -8 -8 -8 -8 -8 -8 -8 -8 -8 -8 -8 -8 -8 -8 -9 -9 -9 -9 -9 -10 -10 -10
-8 -8 -8 -8 -8 -8 -8 -8 -8 -8 -8 -8 -8 -8 -8 -8 -8 -8 -8 -8 -8 -8 -8 -8 -8 -8 -8 -8 -7 -7 -7 -8 -8 -8 -9 -9 -10 -10 -11 -11 -11 -11 -11
-9 -8 -8 -8 -8 -8 -8 -8 -8 -8 -8 -9 -9 -9 -8 -8 -8 -8 -8 -8 -8 -8 -8 -8 -8 -8 -8 -8 -7 -7 -7 -7 -8 -9 -9 -9 -10 -11 -11 -11 -12 -11 -11
-9 -9 -9 -8 -8 -8 -9 -9 -9 -9 -9 -9 -9 -9 -9 -9 -9 -8 -8 -8 -8 -8 -8 -8 -8 -8 -8 -7 -7 -7 -7 -8 -9 -10 -10 -10 -11 -11 -11 -11 -11 -12 -12
-9 -9 -9 -9 -9 -9 -9 -9 -9 -9 -9 -9 -9 -9 -9 -9 -9 -9 -9 -9 -8 -8 -8 -8 -8 -8 -8 -7 -7 -7 -8 -9 -9 -10 -10 -11 -12 -11 -11 -12 -12 -12 -12
-10 -9 -9 -9 -9 -9 -10 -10 -10 -10 -10 -10 -9 -9 -9 -9 -9 -9 -9 -9 -9 -8 -8 -8 -8 -8 -8 -8 -8 -8 -9 -9 -10 -10 -11 -11 -12 -12 -12 -12 -12 -12 -12
-10 -10 -10 -10 -10 -10 -10 -10 -10 -10 -10 -10 -10 -10 -9 -9 -9 -9 -9 -9 -9 -9 -9 -9 -8 -8 -8 -8 -8 -9 -9 -10 -10 -11 -11 -12 -12 -12 -13 -13 -13 -13 -13
-10 -10 -10 -10 -10 -10 -10 -10 -10 -11 -11 -10 -10 -10 -10 -10 -9 -9 -9 -9 -9 -9 -9 -9 -9 -9 -8 -9 -9 -9 -10 -10 -10 -11 -11 -12 -12 -12 -12 -12 -13 -13 -13
-11 -10 -10 -10 -10 -10 -11 -11 -11 -11 -11 -11 -10 -10 -10 -10 -10 -9 -9 -9 -9 -9 -9 -9 -9 -9 -9 -9 -9 -10 -10 -10 -11 -10 -11 -11 -11 -12 -12 -12 -12 -12 -12
-11 -11 -10 -10 -10 -10 -11 -11 -11 -12 -11 -11 -11 -10 -10 -10 -10 -10 -9 -9 -9 -9 -9 -9 -9 -9 -9 -9 -10 -10 -10 -11 -11 -11 -11 -10 -11 -11 -11 -11 -11 -11 -12
-11 -11 -11 -11 -11 -10 -11 -11 -12 -12 -11 -11 -11 -11 -10 -10 -10 -10 -10 -9 -9 -9 -9 -9 -9 -9 -9 -10 -10 -10 -11 -11 -11 -11 -11 -11 -11 -11 -11 -11 -11 -11 -11
-11 -11 -11 -11 -11 -10 -11 -11 -12 -11 -11 -11 -11 -11 -10 -10 -10 -10 -10 -10 -10 -9 -9 -9 -9 -9 -10 -9 -10 -10 -11 -11 -11 -11 -11 -11 -11 -11 -11 -11 -11 -11 -11
-11 -11 -11 -11 -11 -11 -11 -12 -12 -12 -11 -11 -11 -11 -11 -10 -10 -10 -10 -10 -10 -9 -10 -10 -10 -10 -10 -10 -10 -10 -10 -11 -11 -11 -11 -11 -11 -11 -11 -11 -11 -11 -11
-12 -12 -11 -11 -11 -11 -11 -12 -11 -12 -11 -11 -11 -11 -11 -11 -10 -10 -10 -10 -10 -10 -10 -10 -10 -10 -10 -10 -10 -10 -11 -11 -11 -11 -11 -11 -11 -11 -11 -11 -11 -11 -11
-12 -12 -12 -11 -11 -11 -11 -11 -11 -12 -11 -11 -11 -11 -11 -11 -11 -10 -10 -10 -10 -10 -10 -10 -10 -11 -10 -10 -10 -11 -11 -11 -11 -11 -11 -11 -11 -11 -11 -11 -11 -11 -11
-12 -12 -12 -12 -11 -11 -11 -11 -12 -12 -12 -12 -11 -11 -11 -11 -11 -11 -10 -10 -10 -10 -10 -10 -10 -11 -11 -11 -11 -11 -11 -11 -11 -11 -12 -12 -11 -11 -12 -11 -11 -11 -11
-12 -12 -12 -11 -11 -11 -11 -11 -12 -12 -12 -12 -12 -11 -11 -11 -11 -11 -11 -11 -11 -10 -10 -10 -11 -11 -11 -11 -11 -11 -11 -11 -11 -12 -12 -12 -12 -12 -12 -12 -11 -11 -11
-12 -12 -12 -11 -11 -11 -11 -12 -12 -12 -12 -12 -12 -12 -11 -11 -11 -11 -11 -11 -11 -11 -11 -11 -11 -12 -12 -11 -11 -11 -11 -11 -12 -12 -13 -13 -13 -12 -12 -12 -12 -12 -12
-12 -12 -11 -11 -11 -11 -12 -12 -12 -12 -12 -12 -12 -12 -12 -11 -11 -11 -11 -11 -11 -11 -11 -12 -12 -12 -12 -12 -12 -12 -12 -12 -12 -13 -13 -13 -13 -13 -13 -12 -12 -12 -12
-12 -11 -11 -11 -11 -12 -12 -12 -12 -12 -12 -12 -12 -12 -12 -12 -12 -11 -11 -11 -11 -12 -12 -12 -12 -12 -12 -12 -12 -12 -12 -13 -13 -13 -14 -13 -13 -13 -13 -13 -12 -12 -12
Height
5891 5892 5892 5892 5892 5892 5892 5892 5892 5892 5893 5893 5892 5892 5891 5891 5890 5889 5887 5886 5884 5882 5881 5879 5878 5876 5875 5875 5873 5872 5871 5870 5869 5868 5866 5865 5864 5862 5861 5860 5859 5857 5856
5891 5891 5891 5891 5891 5892 5892 5892 5893 5893 5893 5892 5892 5891 5891 5890 5889 5888 5887 5885 5883 5881 5879 5877 5876 5875 5874 5873 5872 5871 5869 5868 5867 5865 5864 5862 5861 5859 5857 5856 5854 5854 5853
5890 5890 5891 5891 5891 5891 5891 5892 5892 5893 5893 5892 5892 5891 5890 5890 5889 5888 5886 5884 5882 5880 5878 5877 5876 5874 5873 5873 5872 5870 5869 5867 5866 5864 5862 5860 5858 5856 5854 5852 5850 5848 5847
5889 5889 5890 5890 5890 5891 5891 5892 5892 5892 5892 5892 5892 5891 5890 5889 5888 5887 5885 5884 5881 5879 5878 5877 5875 5874 5873 5872 5870 5869 5867 5865 5864 5862 5860 5858 5855 5853 5851 5848 5846 5844 5842
5888 5889 5889 5889 5890 5890 5891 5891 5891 5891 5892 5891 5891 5890 5889 5888 5887 5886 5884 5882 5880 5879 5877 5876 5875 5873 5872 5870 5869 5867 5865 5863 5861 5860 5857 5855 5851 5848 5846 5844 5841 5840 5838
5887 5887 5888 5888 5889 5890 5891 5891 5891 5891 5891 5891 5890 5889 5888 5887 5885 5884 5882 5880 5879 5877 5876 5875 5874 5872 5870 5868 5866 5864 5862 5860 5858 5855 5852 5849 5845 5842 5840 5838 5836 5834 5833
5885 5885 5887 5888 5888 5889 5890 5890 5890 5890 5890 5889 5889 5888 5887 5885 5884 5882 5880 5879 5877 5876 5874 5872 5871 5869 5867 5865 5863 5861 5858 5855 5852 5849 5845 5841 5838 5834 5832 5831 5829 5827 5826
5882 5883 5884 5886 5887 5887 5889 5888 5888 5888 5888 5888 5887 5886 5885 5884 5882 5880 5879 5877 5875 5874 5872 5870 5868 5866 5864 5862 5860 5857 5854 5850 5845 5841 5837 5833 5829 5825 5824 5821 5820 5819 5818
5879 5881 5882 5883 5884 5885 5886 5886 5886 5886 5885 5885 5885 5884 5883 5882 5880 5878 5876 5874 5873 5871 5869 5867 5865 5864 5861 5858 5856 5852 5848 5843 5839 5834 5829 5824 5818 5816 5814 5813 5811 5810 5810
5876 5878 5879 5880 5881 5883 5883 5883 5882 5883 5882 5882 5882 5882 5881 5880 5878 5877 5874 5872 5870 5869 5867 5865 5863 5860 5857 5854 5851 5847 5842 5838 5832 5827 5822 5816 5812 5809 5807 5805 5804 5802 5801
5873 5875 5876 5878 5879 5879 5879 5879 5878 5879 5879 5879 5878 5879 5878 5877 5876 5875 5872 5870 5868 5866 5863 5861 5859 5856 5853 5850 5846 5842 5837 5832 5827 5821 5815 5810 5807 5806 5804 5801 5799 5797 5796
5869 5871 5873 5875 5875 5875 5876 5876 5875 5875 5875 5876 5876 5875 5875 5874 5873 5871 5869 5867 5864 5862 5860 5857 5855 5852 5849 5845 5842 5837 5832 5828 5822 5817 5812 5808 5804 5802 5800 5798 5796 5794 5793
5865 5867 5869 5871 5871 5871 5872 5871 5871 5872 5873 5873 5873 5872 5872 5871 5869 5868 5866 5863 5861 5858 5856 5853 5850 5848 5844 5841 5837 5832 5827 5823 5818 5814 5810 5806 5803 5800 5798 5796 5794 5792 5791
5860 5864 5865 5866 5867 5867 5867 5867 5867 5868 5869 5869 5870 5869 5869 5867 5866 5865 5862 5860 5857 5854 5852 5849 5846 5843 5840 5836 5832 5828 5823 5819 5815 5811 5807 5804 5801 5798 5796 5794 5792 5789 5788
5856 5858 5860 5862 5862 5863 5862 5862 5863 5864 5864 5866 5865 5866 5865 5864 5862 5860 5858 5856 5853 5851 5848 5844 5841 5838 5835 5831 5827 5822 5819 5816 5812 5808 5804 5801 5798 5795 5792 5790 5788 5786 5785
5850 5853 5855 5856 5857 5857 5857 5858 5857 5857 5859 5860 5861 5861 5860 5859 5857 5855 5853 5851 5849 5846 5843 5839 5836 5833 5829 5826 5822 5818 5815 5812 5808 5804 5801 5798 5795 5793 5790 5788 5785 5784 5782
5844 5848 5850 5851 5852 5851 5851 5852 5852 5853 5854 5855 5856 5856 5855 5854 5852 5851 5848 5846 5844 5841 5838 5834 5831 5827 5824 5821 5817 5814 5811 5807 5804 5801 5797 5793 5791 5789 5787 5785 5782 5780 5779
5839 5843 5845 5846 5846 5846 5846 5847 5847 5848 5849 5850 5850 5850 5850 5848 5847 5845 5843 5841 5838 5835 5832 5828 5825 5821 5817 5814 5811 5808 5805 5802 5799 5796 5792 5789 5786 5784 5783 5780 5778 5775 5774
5833 5838 5840 5840 5840 5840 5841 5842 5842 5842 5843 5844 5844 5844 5844 5843 5841 5839 5837 5834 5832 5829 5826 5822 5818 5815 5811 5807 5805 5802 5797 5794 5791 5789 5786 5782 5780 5778 5775 5774 5772 5769 5768
5828 5832 5834 5834 5835 5835 5836 5836 5836 5837 5838 5838 5839 5838 5837 5836 5834 5832 5830 5827 5824 5821 5819 5815 5811 5807 5804 5800 5797 5794 5790 5786 5782 5780 5777 5774 5771 5769 5767 5765 5763 5761 5760
5823 5827 5828 5829 5829 5830 5830 5831 5832 5833 5833 5833 5833 5832 5831 5829 5827 5825 5822 5819 5816 5813 5811 5807 5803 5800 5796 5793 5790 5786 5781 5777 5772 5769 5767 5765 5762 5759 5757 5756 5755 5753 5750
5817 5820 5822 5823 5823 5824 5824 5824 5825 5826 5826 5827 5827 5826 5824 5822 5819 5817 5814 5811 5808 5805 5802 5798 5795 5791 5787 5784 5780 5776 5773 5769 5763 5759 5756 5754 5751 5749 5748 5746 5744 5742 5741
5812 5814 5816 5818 5818 5818 5817 5818 5818 5819 5820 5820 5820 5819 5816 5814 5811 5809 5806 5803 5799 5796 5793 5789 5786 5782 5778 5775 5770 5767 5763 5759 5754 5749 5746 5744 5741 5739 5737 5736 5735 5732 5730
5805 5809 5810 5811 5811 5810 5810 5811 5812 5812 5813 5813 5812 5810 5808 5805 5803 5800 5797 5794 5790 5786 5783 5779 5776 5772 5768 5764 5760 5756 5752 5748 5744 5740 5736 5734 5731 5728 5726 5724 5722 5720 5718
5800 5803 5803 5804 5804 5804 5804 5805 5806 5806 5805 5805 5803 5801 5799 5796 5793 5790 5786 5783 5780 5776 5772 5768 5765 5761 5758 5753 5749 5745 5740 5736 5731 5727 5723 5722 5721 5719 5715 5713 5710 5708 5706
5795 5796 5796 5797 5797 5798 5798 5799 5799 5798 5797 5796 5794 5792 5790 5786 5783 5779 5775 5772 5768 5763 5760 5757 5753 5750 5746 5741 5737 5732 5727 5723 5719 5715 5713 5710 5708 5705 5703 5701 5698 5695 5693
Wind_Speed
6 4 3 1 1 4 5 3 2 2 2 2 2 2 4 6 9 11 13 16 16 17 17 17 16 15 16 16 16 16 17 17 18 18 20 20 20 20 20 21 20 19 19
6 4 3 1 1 2 4 3 1 1 1 1 1 2 5 7 10 13 16 18 20 20 18 17 16 16 15 16 17 18 19 20 20 21 22 22 22 23 23 23 24 23 23
6 5 2 1 1 2 2 3 2 3 3 3 4 5 7 9 11 14 18 19 21 19 15 14 13 11 11 12 13 14 15 17 18 19 20 21 22 21 23 23 24 25 24
7 5 3 3 1 2 3 4 4 4 5 6 7 8 8 10 12 15 18 20 19 14 12 10 10 10 11 13 14 16 17 19 20 22 23 24 25 25 25 25 24 24 25
9 6 4 4 2 3 4 5 6 7 7 8 8 9 9 11 13 16 18 18 16 11 9 9 10 11 12 14 17 20 22 24 27 28 29 30 29 31 30 30 29 27 26
10 7 6 4 3 3 6 7 8 9 9 10 10 10 10 12 14 15 17 16 11 10 9 11 12 14 16 18 20 23 26 28 31 34 35 35 35 35 34 33 33 32 30
11 8 7 4 3 5 9 9 11 11 11 12 12 12 11 12 14 15 16 15 11 11 12 13 14 16 18 20 24 27 31 34 36 39 40 41 41 41 41 38 36 35 34
14 11 9 9 9 14 13 12 12 13 14 14 13 12 12 12 13 16 16 15 13 13 15 16 17 18 20 23 28 32 36 38 41 43 44 45 45 45 44 43 40 40 39
18 14 12 14 18 20 15 15 16 16 16 16 15 13 13 12 14 16 15 13 14 15 17 18 19 19 22 25 30 35 39 42 43 43 42 41 41 39 40 42 43 40 39
24 20 19 19 18 21 18 19 19 19 18 18 16 14 13 11 12 14 15 15 17 18 19 20 20 20 23 28 32 37 40 41 40 38 38 36 31 30 31 31 30 31 33
23 19 17 17 21 23 25 23 21 22 20 20 17 16 13 12 12 13 16 18 20 21 22 21 21 22 25 29 34 37 38 37 34 35 34 30 26 27 28 28 27 26 25
26 23 20 22 22 23 25 25 24 23 22 20 18 17 15 14 14 14 17 20 22 24 24 23 23 24 27 29 33 36 34 31 31 31 27 22 21 23 23 22 20 19 18
32 28 25 22 24 25 26 26 25 23 22 20 20 17 20 16 16 16 18 21 24 25 25 25 25 26 28 32 33 35 30 30 31 28 26 22 19 18 18 18 19 19 18
33 31 26 23 22 25 25 25 26 25 24 23 24 21 21 19 19 19 20 22 25 27 27 27 27 28 30 34 34 35 29 30 30 27 25 24 21 21 22 22 22 22 21
32 29 26 23 25 26 25 26 27 30 27 28 24 27 23 22 22 22 23 24 25 28 29 30 31 31 32 34 35 33 30 29 27 27 25 25 23 21 19 17 15 15 15
33 29 26 23 24 25 27 25 28 32 27 28 26 28 25 25 25 25 25 27 27 29 32 32 33 33 34 35 35 34 33 31 29 27 26 23 22 20 20 20 19 19 20
33 29 26 25 25 25 26 27 23 21 26 28 27 31 26 27 27 27 27 28 29 30 33 34 35 34 34 36 36 35 33 32 31 28 26 25 26 25 24 23 22 22 22
31 29 29 28 27 27 25 29 26 25 26 28 31 29 29 29 28 29 30 30 31 32 35 37 37 37 36 37 39 38 35 34 33 32 29 28 27 29 28 26 25 26 26
32 30 31 29 29 28 27 27 26 28 28 30 31 32 31 30 30 31 32 32 33 34 37 39 39 39 38 38 41 41 38 38 38 36 34 33 33 31 31 31 29 30 30
32 32 31 30 29 29 29 30 25 30 32 33 34 34 33 32 33 34 35 35 36 37 39 41 41 42 40 39 41 43 42 40 40 40 39 39 38 36 33 32 33 33 34
28 31 31 30 30 32 31 31 28 30 35 34 35 34 34 35 36 37 37 38 39 39 42 44 44 45 45 43 43 44 45 44 41 41 42 42 43 41 38 36 36 36 36
29 32 30 31 32 33 33 33 35 34 35 36 37 36 37 37 38 40 40 40 42 43 46 47 48 48 48 46 45 46 47 47 44 42 42 44 45 44 43 42 41 40 40
31 32 31 32 33 34 34 34 35 35 35 37 37 37 39 40 41 41 42 44 45 46 49 50 52 51 48 46 47 48 47 48 48 46 44 43 43 44 45 44 44 44 44
33 31 31 34 34 34 34 34 35 35 36 36 38 40 43 43 44 44 45 46 48 50 53 55 55 51 49 49 49 49 50 51 50 48 46 45 43 41 41 45 47 46 46
30 32 33 34 33 32 32 32 34 35 37 39 39 43 45 46 46 47 49 50 51 54 57 58 55 53 51 52 52 53 54 53 52 48 46 45 44 43 41 43 45 47 48
30 32 32 31 31 30 30 33 35 37 39 41 43 45 47 48 49 50 51 54 57 60 60 56 55 54 55 56 56 55 55 53 50 48 44 44 44 45 45 45 47 49 51
Wind_Direction
166 162 172 141 35 19 14 23 32 98 122 130 109 44 11 359 351 344 340 338 337 334 330 326 323 323 323 321 320 317 315 313 311 308 306 304 300 298 297 296 295 293 290
179 182 186 179 325 1 2 6 340 277 215 234 282 318 329 332 334 333 335 336 338 334 331 330 326 322 320 318 317 317 316 314 314 311 307 304 300 298 295 293 291 288 288
186 177 180 189 282 322 320 304 280 263 253 258 274 290 304 318 325 327 330 334 338 335 333 338 338 342 338 332 329 327 326 325 322 319 315 310 306 302 297 292 289 286 281
211 214 225 239 278 301 298 278 265 268 261 263 271 283 298 311 316 323 329 334 331 325 325 328 329 331 334 333 330 328 327 326 323 320 316 311 308 303 299 296 292 288 283
225 233 236 227 250 303 290 269 264 264 263 266 275 287 298 308 317 325 334 334 326 316 323 324 322 326 328 328 326 327 328 326 322 318 312 308 302 298 295 292 289 286 285
227 235 246 243 250 283 279 269 261 263 267 272 278 289 302 313 322 330 338 328 317 319 322 322 322 323 325 327 329 330 325 320 317 313 307 301 294 289 284 284 283 281 280
236 230 238 242 284 318 303 282 268 264 266 272 279 289 301 312 321 332 334 322 311 314 315 318 319 322 326 327 325 326 322 318 312 307 301 295 291 288 284 281 281 281 280
242 233 225 240 262 298 298 283 275 267 267 270 275 286 299 311 322 330 327 315 307 310 314 318 320 324 327 328 327 325 321 315 311 305 300 297 293 288 287 286 285 284 283
247 238 233 251 274 289 277 277 275 261 263 266 273 281 293 309 325 334 327 315 310 313 313 316 318 324 327 328 326 324 321 317 311 308 305 299 292 289 287 285 283 279 278
243 246 251 265 272 276 275 273 268 261 258 263 268 277 288 304 326 331 327 322 316 316 315 318 319 322 326 328 327 324 322 315 314 314 309 300 295 293 294 295 294 288 281
241 245 247 255 268 273 275 266 263 259 253 258 266 273 283 297 312 321 326 326 322 319 318 319 320 319 326 328 327 325 319 317 320 321 319 307 293 300 301 301 299 294 289
241 250 249 266 267 270 273 272 262 254 253 255 263 269 281 288 300 315 326 328 327 322 319 319 319 319 322 328 325 323 321 322 325 329 329 321 309 307 309 308 306 305 301
239 245 256 262 271 277 275 269 268 256 255 258 264 266 273 281 291 306 317 325 328 323 318 318 320 317 321 322 324 324 319 324 329 330 338 334 328 326 326 323 320 315 311
241 246 257 263 275 277 269 264 261 252 252 260 260 265 269 278 284 297 309 316 326 326 320 319 319 321 319 323 324 322 316 318 324 327 326 324 322 316 312 310 308 306 305
241 245 257 267 277 273 266 264 260 259 250 253 256 261 269 277 284 291 302 310 317 323 322 320 320 321 321 320 322 320 314 313 318 322 324 322 320 318 316 316 318 320 320
236 246 256 267 272 274 270 267 274 243 244 249 254 262 269 276 284 292 297 305 309 318 320 320 319 318 320 318 321 317 312 307 310 315 315 317 318 319 319 317 317 317 319
234 245 257 265 271 276 268 266 262 240 244 253 253 260 269 275 285 292 298 302 305 311 316 317 316 316 316 316 317 314 305 303 302 305 307 307 304 304 306 309 307 305 306
235 245 256 265 273 277 266 261 258 251 250 254 257 264 269 277 285 292 296 300 302 304 311 314 314 315 315 315 313 312 304 296 296 295 296 298 297 298 299 301 300 298 297
235 246 253 265 271 274 269 265 260 243 251 258 263 267 272 280 286 291 294 297 300 300 305 310 311 312 313 312 310 309 308 299 291 290 288 289 290 289 291 293 292 291 292
230 243 256 264 270 272 265 259 275 238 249 259 264 268 275 281 286 290 293 296 298 297 301 306 306 310 310 308 307 307 306 304 296 285 283 284 285 285 282 284 287 287 288
229 249 258 265 268 268 266 258 253 246 252 260 266 272 278 283 286 289 292 293 295 296 299 302 304 308 308 308 305 305 305 304 303 291 280 280 282 282 280 280 280 281 284
247 253 258 260 263 266 263 257 253 253 254 260 267 272 278 282 286 288 289 292 294 294 297 300 302 308 308 307 305 304 304 303 304 297 287 280 280 280 281 283 285 283 283
249 254 255 258 260 261 260 256 254 253 258 263 270 276 281 283 285 287 289 290 292 294 296 297 302 307 307 306 305 303 302 302 302 299 289 283 281 279 280 282 283 283 283
248 252 255 255 257 258 256 255 254 255 262 267 272 274 279 282 283 285 288 291 292 293 295 297 303 306 306 304 302 301 300 299 298 295 291 285 281 279 279 281 284 284 283
248 252 254 254 253 253 254 255 257 261 265 271 272 275 279 282 285 288 289 289 290 292 294 299 303 304 302 303 301 300 299 298 295 289 285 285 284 281 280 280 281 282 282
247 251 252 253 254 253 254 257 260 265 269 272 275 278 281 283 284 285 288 290 291 293 298 302 303 301 301 301 301 300 299 296 293 289 284 283 283 283 281 281 281 281 281